Hourly Data Report for March 10, 2004

SHERBROOKE A
QUEBEC

45°26'00.000" N
71°41'00.000" W
241.40 m
7028124
71610
YSC

Download Data

Hourly Data (March 2004)
Hourly Data Report for March 10, 2004
TIME
LST
Temp Definition
°C
Dew Point Definition
°C
Rel Hum Definition
%
Precip. Amount Definition
mm

Wind Dir Definition
10's deg

Wind Spd Definition
km/h
Visibility Definition
km
Stn Press Definition
kPa
Hmdx Definition


Wind Chill Definition


Weather Definition


00:00 -10.0 -15.0 67   9 6 15.0 99.56   -14  
01:00 -10.5 -15.4 67   9 4 15.0 99.63   -13  
02:00 -12.0 -16.9 67   8 4 15.0 99.68   -15  
03:00 -12.0 -16.8 67   10 6 15.0 99.70   -16  
04:00 -12.8 -17.5 68   9 6 15.0 99.73   -17  
05:00 -12.6 -17.5 67   10 9 15.0 99.77   -18  
06:00 -12.9 -17.9 66   8 7 15.0 99.85   -17  
07:00 -11.8 -16.9 66   9 9 15.0 99.92   -17  
08:00 -9.6 -15.6 62   8 6 24.1 99.97   -13 Mainly Clear
09:00 -5.5 -13.3 54     0 24.1 100.01     Mainly Clear
10:00 -1.0 -12.4 42     0 24.1 100.03     Mainly Clear
11:00 0.1 -11.6 41   34 4 24.1 100.03     Mainly Clear
12:00 1.9 -9.7 42   23 9 24.1 99.99     Mainly Clear
13:00 2.2 -8.7 44   26 11 24.1 99.92     Mainly Clear
14:00 2.9 -8.9 41   26 4 24.1 99.88     Mainly Clear
15:00 3.5 -8.0 43   22 7 24.1 99.85     Mainly Clear
16:00 4.0 -8.6 39   28 6 24.1 99.84     Mainly Clear
17:00 3.4 -8.3 42   26 6 24.1 99.82     Mainly Clear
18:00 -0.7 -9.2 53     0 15.0 99.81      
19:00 -2.0 -9.9 55     0 15.0 99.74      
20:00 -3.9 -10.7 59   10 6 15.0 99.73   -7  
21:00 -3.7 -10.0 62   16 4 15.0 99.74   -5  
22:00 -6.4 -11.5 67   12 6 15.0 99.72   -9  
23:00 -6.5 -11.4 68   8 6 15.0 99.59   -9  

Notes on Data Quality.

Legend

  • E = Estimated
  • M = Missing
  • NA = Not Available*
  • [empty] = Indicates an unobserved value
Date modified: